Home > Weather > Osage City > Past weeks

Flag for USA Past Weather in Osage City, Kansas, USA — Yesterday and Last 2 Weeks

Now
90 °F

Sunny.


Feels Like: 95 °F
Forecast: 74 / 89 °F
Wind: 7 mph from North

Location: Forbes Field

Current Time: Jun 26, 2016 at 3:59:53 PM

Latest Report: Jun 26, 2016 at 2:53 PM


Visibility: 10 mi

Pressure: 30.02 "Hg

Humidity: 50%

Dew Point: 69 °F

Location of Osage CityLocation

Past Weather in Osage City — Graph

°F

Osage City Temperature Yesterday

Maximum temperature yesterday: 95 °F (at 2:53 PM)
Minimum temperature yesterday: 77 °F (at 5:53 AM)
Average temperature yesterday: 86 °F

High & Low Weather Summary for the Past Weeks

 TemperatureHumidityPressure
High103 °F (Jun 22, 3:53 PM)94% (Jun 17, 4:53 AM)30.15 "Hg (Jun 17, 4:53 AM)
Low69 °F (Jun 13, 5:53 AM)22% (Jun 15, 4:53 PM)29.65 "Hg (Jun 14, 6:53 PM)
Average84 °F64%29.93 "Hg
* Reported Jun 11 2:53 PM — Jun 26 2:53 PM, Osage City, Weather by CustomWeather, © 2016

Note: Actual official high and low records may vary slightly from our data, if they occured in-between our weather recording intervals... More about our weather records

Advertising

Osage City Weather History for the Previous 24 Hours

Scroll right to see more
 ConditionsComfort  
Time TempWeatherWind HumidityBarometerVisibility
2:53 PM
Sun, Jun 26
90 °FSunny.7 mph50%30.02 "Hg10 mi
1:53 PM91 °FSunny.10 mph52%30.04 "Hg10 mi
12:53 PM90 °FHot.5 mph52%30.04 "Hg10 mi
5:53 AM75 °FMild.2 mph74%30.05 "Hg10 mi
2:53 AM77 °FPassing clouds.No wind66%29.97 "Hg10 mi
1:53 AM80 °FClear.5 mph71%29.95 "Hg10 mi
12:53 AM83 °FPartly cloudy.9 mph65%29.96 "Hg10 mi
11:53 PM
Sat, Jun 25
83 °FClear.8 mph65%29.93 "Hg10 mi
10:53 PM83 °FClear.6 mph65%29.94 "Hg10 mi
9:53 PM84 °FClear.7 mph63%29.91 "Hg10 mi
8:53 PM88 °FSunny.7 mph55%29.89 "Hg10 mi
7:53 PM91 °FSunny.12 mph50%29.86 "Hg10 mi
6:53 PM93 °FSunny.10 mph47%29.85 "Hg10 mi
5:53 PM95 °FSunny.15 mph44%29.87 "Hg10 mi
4:53 PM95 °FSunny.20 mph44%29.87 "Hg10 mi
3:53 PM95 °FPassing clouds.17 mph44%29.89 "Hg10 mi
Weather by CustomWeather, © 2016

See weather overviewHow to use our weather pages